• Em Portugal
  • Lista de países
  • Para 7 dias
  • Temperatura da água
  • Mapas de satélite
  • Mapa do tempo
  • Widgets de tempo
  • user-avatar
    Iniciar Sessão

    Previsão horária em Lowocie

    Hoje, 20 Outubro, Sábado

    Tempo Temperatura Precipitação Vento Pressão Humidade
    00:00 +7°C° 0 mm 1 m/s 753 mmHg 91%
    01:00 +6°C° 0 mm 1 m/s 753 mmHg 91%
    02:00 +6°C° 0 mm 1 m/s 753 mmHg 92%
    03:00 +6°C° 0 mm 1 m/s 753 mmHg 92%
    04:00 +5°C° 0 mm 1 m/s 753 mmHg 93%
    05:00 +5°C° 0 mm 1 m/s 753 mmHg 93%
    06:00 +5°C° 0 mm 1 m/s 753 mmHg 94%
    07:00 +5°C° 0 mm 1 m/s 753 mmHg 94%
    08:00 +5°C° 0 mm 2 m/s 753 mmHg 92%
    09:00 +6°C° 0 mm 2 m/s 753 mmHg 85%
    10:00 +8°C° 0 mm 2 m/s 753 mmHg 79%
    11:00 +9°C° 0 mm 2 m/s 753 mmHg 72%
    12:00 +10°C° 0 mm 2 m/s 753 mmHg 67%
    13:00 +10°C° 0 mm 2 m/s 753 mmHg 63%
    14:00 +12°C° 0 mm 2 m/s 753 mmHg 58%
    15:00 +10°C° 0 mm 2 m/s 752 mmHg 61%
    16:00 +10°C° 0 mm 2 m/s 752 mmHg 64%
    17:00 +10°C° 0 mm 1 m/s 752 mmHg 67%
    18:00 +9°C° 0 mm 1 m/s 752 mmHg 70%
    19:00 +9°C° 0 mm 1 m/s 753 mmHg 74%
    20:00 +8°C° 0 mm 1 m/s 753 mmHg 77%
    21:00 +7°C° 0 mm 1 m/s 753 mmHg 80%
    22:00 +7°C° 0 mm 1 m/s 753 mmHg 83%
    23:00 +6°C° 0 mm 1 m/s 753 mmHg 86%

    Amanhã, 21 Outubro, Domingo

    Tempo Temperatura Precipitação Vento Pressão Humidade
    00:00 +6°C° 0 mm 1 m/s 753 mmHg 87%
    01:00 +6°C° 0 mm 1 m/s 753 mmHg 89%
    02:00 +6°C° 0 mm 1 m/s 754 mmHg 90%
    03:00 +5°C° 0 mm 1 m/s 754 mmHg 91%
    04:00 +5°C° 0 mm 1 m/s 754 mmHg 92%
    05:00 +5°C° 0 mm 1 m/s 754 mmHg 92%
    06:00 +5°C° 0 mm 1 m/s 754 mmHg 92%
    07:00 +5°C° 0 mm 1 m/s 754 mmHg 92%
    08:00 +5°C° 0 mm 1 m/s 755 mmHg 92%
    09:00 +7°C° 0 mm 1 m/s 755 mmHg 85%
    10:00 +9°C° 0 mm 1 m/s 755 mmHg 78%
    11:00 +10°C° 0 mm 1 m/s 756 mmHg 70%
    12:00 +11°C° 0 mm 1 m/s 756 mmHg 67%
    13:00 +12°C° 0 mm 1 m/s 756 mmHg 64%
    14:00 +12°C° 0 mm 1 m/s 756 mmHg 60%
    15:00 +12°C° 0 mm 1 m/s 755 mmHg 64%
    16:00 +11°C° 0 mm 1 m/s 755 mmHg 67%
    17:00 +10°C° 0 mm 1 m/s 755 mmHg 70%
    18:00 +9°C° 0 mm 1 m/s 755 mmHg 74%
    19:00 +8°C° 0 mm 1 m/s 756 mmHg 78%
    20:00 +8°C° 0 mm 1 m/s 756 mmHg 82%
    21:00 +7°C° 0 mm 1 m/s 756 mmHg 83%
    22:00 +7°C° 0 mm 1 m/s 756 mmHg 85%
    23:00 +6°C° 0 mm 2 m/s 756 mmHg 86%

    Depois de amanhã, 22 Outubro, Segunda-feira

    Tempo Temperatura Precipitação Vento Pressão Humidade
    00:00 +6°C° 0 mm 2 m/s 755 mmHg 87%
    01:00 +5°C° 0 mm 2 m/s 755 mmHg 88%
    02:00 +5°C° 0 mm 2 m/s 755 mmHg 89%
    03:00 +5°C° 0 mm 2 m/s 755 mmHg 89%
    04:00 +5°C° 0 mm 2 m/s 754 mmHg 90%
    05:00 +3°C° 0 mm 3 m/s 754 mmHg 91%
    06:00 +3°C° 0 mm 3 m/s 754 mmHg 91%
    07:00 +3°C° 0 mm 3 m/s 754 mmHg 91%
    08:00 +4°C° 0 mm 3 m/s 754 mmHg 91%
    09:00 +5°C° 0 mm 3 m/s 753 mmHg 83%
    10:00 +7°C° 0 mm 4 m/s 753 mmHg 76%
    11:00 +10°C° 0 mm 4 m/s 753 mmHg 68%
    12:00 +11°C° 0 mm 4 m/s 752 mmHg 65%
    13:00 +12°C° 0 mm 5 m/s 751 mmHg 61%
    14:00 +12°C° 0 mm 5 m/s 751 mmHg 57%
    15:00 +11°C° 0.1 mm 4 m/s 750 mmHg 62%
    16:00 +11°C° 0.1 mm 4 m/s 750 mmHg 66%
    17:00 +10°C° 0.1 mm 4 m/s 750 mmHg 70%
    18:00 +8°C° 0.3 mm 4 m/s 750 mmHg 75%
    19:00 +8°C° 0.3 mm 4 m/s 750 mmHg 79%
    20:00 +8°C° 0.3 mm 4 m/s 750 mmHg 84%
    21:00 +7°C° 0.3 mm 4 m/s 750 mmHg 83%
    22:00 +7°C° 0.3 mm 4 m/s 749 mmHg 82%
    23:00 +6°C° 0.3 mm 4 m/s 749 mmHg 80%

    23 Outubro, Terça-feira

    Tempo Temperatura Precipitação Vento Pressão Humidade
    00:00 +7°C° 0 mm 3 m/s 749 mmHg 81%
    01:00 +5°C° 0 mm 3 m/s 749 mmHg 82%
    02:00 +4°C° 0 mm 3 m/s 749 mmHg 83%
    03:00 +4°C° 0 mm 3 m/s 749 mmHg 83%
    04:00 +3°C° 0 mm 3 m/s 749 mmHg 83%
    05:00 +2°C° 0 mm 3 m/s 749 mmHg 83%
    06:00 +2°C° 0 mm 3 m/s 748 mmHg 83%
    07:00 +2°C° 0 mm 3 m/s 748 mmHg 83%
    08:00 +2°C° 0 mm 3 m/s 748 mmHg 84%
    09:00 +4°C° 0 mm 4 m/s 747 mmHg 78%
    10:00 +5°C° 0 mm 5 m/s 746 mmHg 73%
    11:00 +7°C° 0 mm 5 m/s 746 mmHg 68%
    12:00 +7°C° 0 mm 6 m/s 745 mmHg 66%
    13:00 +6°C° 0 mm 7 m/s 743 mmHg 64%
    14:00 +6°C° 0 mm 7 m/s 742 mmHg 61%
    15:00 +6°C° 0.5 mm 8 m/s 740 mmHg 66%
    16:00 +5°C° 0.5 mm 8 m/s 739 mmHg 70%
    17:00 +3°C° 0.5 mm 9 m/s 737 mmHg 74%
    18:00 +3°C° 1.2 mm 9 m/s 736 mmHg 77%
    19:00 +3°C° 1.2 mm 9 m/s 734 mmHg 80%
    20:00 +3°C° 1.2 mm 9 m/s 733 mmHg 83%
    21:00 +5°C° 0.9 mm 8 m/s 732 mmHg 85%
    22:00 +5°C° 0.9 mm 7 m/s 731 mmHg 87%
    23:00 +5°C° 0.9 mm 6 m/s 729 mmHg 89%

    24 Outubro, Quarta-feira

    Tempo Temperatura Precipitação Vento Pressão Humidade
    00:00 +5°C° 0.3 mm 6 m/s 729 mmHg 89%
    01:00 +6°C° 0.3 mm 5 m/s 728 mmHg 89%
    02:00 +6°C° 0.3 mm 5 m/s 727 mmHg 89%
    03:00 +6°C° 0.2 mm 5 m/s 727 mmHg 88%
    04:00 +6°C° 0.2 mm 5 m/s 727 mmHg 88%
    05:00 +5°C° 0.2 mm 5 m/s 727 mmHg 87%
    06:00 +4°C° 0.7 mm 6 m/s 728 mmHg 82%
    07:00 +3°C° 0.7 mm 7 m/s 729 mmHg 78%
    08:00 +2°C° 0.7 mm 9 m/s 729 mmHg 73%
    09:00 +2°C° 0.1 mm 9 m/s 730 mmHg 71%
    10:00 +3°C° 0.1 mm 9 m/s 731 mmHg 68%
    11:00 +3°C° 0.1 mm 10 m/s 731 mmHg 65%
    12:00 +3°C° 0.3 mm 10 m/s 732 mmHg 66%
    13:00 +3°C° 0.3 mm 10 m/s 732 mmHg 67%
    14:00 +3°C° 0.3 mm 10 m/s 732 mmHg 68%
    15:00 +3°C° 0.5 mm 10 m/s 733 mmHg 68%
    16:00 +3°C° 0.5 mm 10 m/s 733 mmHg 68%
    17:00 +3°C° 0.5 mm 10 m/s 733 mmHg 68%
    18:00 +2°C° 0.1 mm 10 m/s 734 mmHg 69%
    19:00 +2°C° 0.1 mm 9 m/s 734 mmHg 69%
    20:00 +2°C° 0.1 mm 9 m/s 735 mmHg 69%
    21:00 +1°C° 0 mm 9 m/s 735 mmHg 71%
    22:00 +1°C° 0 mm 8 m/s 736 mmHg 73%
    23:00 +1°C° 0 mm 8 m/s 737 mmHg 74%

    25 Outubro, Quinta-feira

    Tempo Temperatura Precipitação Vento Pressão Humidade
    00:00 +2°C° 0 mm 7 m/s 737 mmHg 75%
    01:00 +2°C° 0 mm 7 m/s 737 mmHg 76%
    02:00 +2°C° 0 mm 7 m/s 738 mmHg 77%
    03:00 +1°C° 0 mm 6 m/s 738 mmHg 78%
    04:00 +1°C° 0 mm 6 m/s 738 mmHg 78%
    05:00 +1°C° 0 mm 6 m/s 738 mmHg 79%
    06:00 +1°C° 0 mm 5 m/s 739 mmHg 80%
    07:00 +1°C° 0 mm 5 m/s 739 mmHg 80%
    08:00 +1°C° 0 mm 4 m/s 739 mmHg 81%
    09:00 +3°C° 0 mm 4 m/s 739 mmHg 75%
    10:00 +4°C° 0 mm 4 m/s 739 mmHg 68%
    11:00 +5°C° 0 mm 5 m/s 738 mmHg 61%
    12:00 +5°C° 0 mm 5 m/s 738 mmHg 63%
    13:00 +5°C° 0 mm 4 m/s 737 mmHg 65%
    14:00 +5°C° 0 mm 4 m/s 737 mmHg 68%
    15:00 +5°C° 0.5 mm 4 m/s 736 mmHg 74%
    16:00 +4°C° 0.5 mm 4 m/s 736 mmHg 80%
    17:00 +3°C° 0.5 mm 4 m/s 735 mmHg 86%
    18:00 +4°C° 0.3 mm 4 m/s 735 mmHg 87%
    19:00 +5°C° 0.3 mm 4 m/s 734 mmHg 88%
    20:00 +6°C° 0.3 mm 5 m/s 734 mmHg 89%
    21:00 +5°C° 0.1 mm 4 m/s 734 mmHg 89%
    22:00 +5°C° 0.1 mm 4 m/s 734 mmHg 89%
    23:00 +5°C° 0.1 mm 4 m/s 734 mmHg 88%
    Mostrar mais